KOSEN 1
1 49402U 21102H   25332.58123056  .00008599  00000-0  36468-3 0  9991
2 49402  97.3496  13.7682 0014441 189.4395 170.6573 15.23262844223440
HO-113
1 50466U 21131B   25332.83321701  .00000617  00000-0  20527-3 0  9992
2 50466  98.5063  61.3248 0003754 355.3537   4.7617 14.41081995206250
SNUGLITE 2
1 52899U 22065F   25332.65254731  .00001391  00000-0  27600-3 0  9998
2 52899  98.1919 113.2660 0006465 297.0852  62.9690 14.63772038181659
UmKA 1 (RS40S)
1 57172U 23091G   25332.83371758  .00007778  00000-0  38596-3 0  9997
2 57172  97.5364  27.3599 0015127  97.2279 263.0675 15.17883593133584
CubeBel-2 (EU11S)
1 57175U 23091K   25332.79908096  .00012395  00000-0  52135-3 0  9992
2 57175  97.5361  29.6906 0012438 100.2313 260.0327 15.23471106133735
SONATE-2
1 59112U 24043Q   25332.33476855  .00030660  00000-0  67282-3 0  9990
2 59112  97.5320 108.0612 0008886 214.4799 145.5873 15.43964232 96759
MO-122
1 60209U 24125G   25332.86905294  .00034303  00000-0  72414-3 0  9993
2 60209  97.2541 183.2420 0013477 233.0256 126.9760 15.45029809 78469
GRBBeta
1 60237U 24128C   25332.13098535  .00004890  00000-0  34992-3 0  9995
2 60237  61.9891 200.6533 0056829  93.7294 267.0299 15.04543225 75993
Curium One
1 60242U 24128H   25332.34705276  .00009183  00000-0  57764-3 0  9993
2 60242  61.9784 195.1094 0056492  90.7728 269.9839 15.08504458 76110
ROBUSTA-3A
1 60243U 24128J   25332.34436388  .00008276  00000-0  53070-3 0  9997
2 60243  61.9859 196.5892 0056561  88.1922 272.5648 15.07905177 76096
CatSat
1 60246U 24125J   25332.57273365  .00037270  00000-0  94190-3 0  9990
2 60246  97.2342 180.1220 0033799 196.2610 163.7555 15.39106216 76343
HYPERVIEW-1G (RS66S)
1 61772U 24199AP  25332.90085073  .00042387  00000-0  85735-3 0  9990
2 61772  97.3228 202.1766 0008877 300.6829  59.3545 15.46296041103472
AO-123
1 61781U 24199AY  25332.88839299  .00010614  00000-0  35021-3 0  9995
2 61781  97.3263 198.4929 0013573 311.4953  48.5123 15.31515410103229
ZIMSAT 2
1 61783U 24199BA  25332.83527929  .00164593  00000-0  15312-2 0  9992
2 61783  97.3124 205.1731 0003876 298.0873  61.9995 15.66866960106822
HADES-R (SO-124)
1 62690U 25009CK  25332.16890679  .00145668  00000-0  22602-2 0  9994
2 62690  97.3898  54.2888 0002471 225.1333 134.9719 15.53469259 48518
HYDRA-T
1 62692U 25009CM  25332.16166825  .00158970  00000-0  23501-2 0  9994
2 62692  97.3896  54.4496 0002359 228.6209 131.4842 15.54756975 48525
JINJUSat 1B
1 63210U 25052A   25332.62496974  .00016649  00000-0  64886-3 0  9999
2 63210  97.4200 224.8750 0006132  77.6695 282.5230 15.26015408 39439
NUSHSAT 1
1 63211U 25052B   25332.62949676  .00019111  00000-0  72335-3 0  9997
2 63211  97.4186 224.9830 0006146  79.7887 280.4045 15.26959723 39443
TEVEL2-4
1 63213U 25052D   25332.62439809  .00017845  00000-0  68855-3 0  9995
2 63213  97.4105 224.5587 0005176  90.3129 269.8703 15.26339978 39436
TEVEL2-5
1 63214U 25052E   25332.49807832  .00018079  00000-0  69902-3 0  9990
2 63214  97.4106 224.4224 0005206  90.7953 269.3882 15.26267808 39411
TEVEL2-6
1 63215U 25052F   25332.63607043  .00017965  00000-0  69552-3 0  9993
2 63215  97.4106 224.5480 0005260  90.2399 269.9442 15.26226208 39435
TEVEL2-1
1 63217U 25052H   25332.61022780  .00017525  00000-0  68504-3 0  9990
2 63217  97.4080 224.3454 0005133  99.5674 260.6144 15.25910656 39426
TEVEL2-3
1 63218U 25052J   25332.60962060  .00017529  00000-0  68480-3 0  9991
2 63218  97.4083 224.3499 0005136 100.5404 259.6413 15.25929859 39428
TEVEL2-2
1 63219U 25052K   25332.21754599  .00018496  00000-0  72302-3 0  9997
2 63219  97.4079 223.9563 0005157 102.0921 258.0895 15.25898455 39362
TEVEL2-9
1 63237U 25052AD  25332.23215196  .00018526  00000-0  75585-3 0  9994
2 63237  97.4145 223.6977 0008574 121.2935 238.9143 15.24442892 39335
TEVEL2-7
1 63238U 25052AE  25332.63856036  .00016922  00000-0  69338-3 0  9990
2 63238  97.4145 224.0770 0008778 120.3449 239.8658 15.24315740 39396
TEVEL2-8
1 63239U 25052AF  25332.64395409  .00016969  00000-0  69586-3 0  9990
2 63239  97.4149 224.0674 0008683 120.6295 239.5799 15.24288505 39392
HYDRA-W
1 63490U 25052BL  25331.95182249  .00069192  00000-0  17943-2 0  9993
2 63490  97.4071 225.5513 0010946 108.5813 251.6622 15.38699171 39445
HADES-ICM (SO-125)
1 63492U 25052BN  25332.64545498  .00053120  00000-0  14526-2 0  9999
2 63492  97.4080 226.0200 0011033 111.0045 249.2381 15.37132887 39530
Dragonfly
1 65729U 98067XH  25331.96277047  .00130658  00000-0  12021-2 0  9996
2 65729  51.6262 211.1145 0006345 191.7555 168.3294 15.66720424 10842
RSP-03
1 65732U 98067XL  25332.06571717  .00106782  00000-0  10761-2 0  9993
2 65732  51.6272 211.0556 0006939 168.0395 192.0766 15.64532307 10869
GHS-01
1 65733U 98067XM  25331.99901602  .00155859  00000-0  13318-2 0  9995
2 65733  51.6287 210.6117 0006882 190.1703 169.9155 15.68442285 10864
BOTAN
1 65942U 98067XP  25332.05801197  .00091596  00000-0  11306-2 0  9995
2 65942  51.6292 213.2561 0004661 146.1415 213.9876 15.59384100  7573
CEVROSAT1
1 98526U 25248E   25313.13142326  .00000000  00000-0  19360-3 0    02
2 98526  45.4084 218.4764 0001315 254.8982 242.1062 15.17981583    02
